Location: Asheville, NC
(35.6000°N, 82.5500°W)
Time: 13:28:20
(UTC-05:00)

Vanguard 1 Rocket - Pass Details

Date: 28 January 2018
Orbit: 655 x 4222 km, 34.3° (Epoch: 21 February)

Event Time Altitude Azimuth Distance (km) Brightness Sun altitude
Exits shadow 06:21:41 - 253° (WSW) 6,929 11.3 -14.7°
Reaches altitude 10° 06:23:31 10° 253° (WSW) 6,481 11.2 -14.3°
Maximum altitude 06:42:02 80° 171° (S) 2,127 9.3 -10.7°
Drops below altitude 10° 06:51:05 10° 85° (E) 3,427 11.6 -8.9°
Sets 06:53:18 0° 84° (E) 4,116 12.2 -8.5°
